Terug naar catalogus

STARLINK-30169

ActiefCommunicatieVLEO
NORAD 57499·PAYLOAD·🇺🇸 United States

Gelanceerd Aug 7, 2023 vanaf Cape Canaveral Space Force Station

Loading…

Volgende Passages (komende 24 uur)

TLE

VersSource: CelesTrak SupGP

Epoch: Sep 15, 2026, 01:50 UTC

1 57499C 23113E   26258.07687500 -.00060528  00000+0 -21924-2 0  2580
2 57499  43.0040  12.3305 0001926 266.7674 202.5340 15.27607321    18

Volg STARLINK-30169 in realtime met AllMySat

Download on the App Store